GW0309 Weather Reports


time (UTC)temp
C
wind
direction
speed
KPH
gust
KPH
rain 1hr
cm
rain 24hr
cm
rain mn
cm
humidity
%
barometer
mb
20260505101206 -17 352 17.7 32.2 0.00 0.00 0.00 1054.2
20260505100702 -17 330 6.4 11.3 0.00 0.00 0.00 1053.7
20260505100159 -17 286 8.0 14.5 0.00 0.00 0.00 1053.6
20260505095655 -17 215 6.4 22.5 0.00 0.00 0.00 1053.4
20260505095153 -17 261 6.4 17.7 0.00 0.00 0.00 1053.9
20260505094648 -17 150 4.8 14.5 0.00 0.00 0.00 1053.5
20260505094145 -17 247 6.4 9.7 0.00 0.00 0.00 1053.4
20260505093641 -17 221 3.2 11.3 0.00 0.00 0.00 1053.1
20260505093139 -17 197 4.8 8.0 0.00 0.00 0.00 1052.9
20260505092636 -17 174 1.6 3.2 0.00 0.00 0.00 1052.1
20260505092135 -17 244 3.2 4.8 0.00 0.00 0.00 1051.9
20260505091631 -17 133 0.0 1.6 0.00 0.00 0.00 1051.7
20260505091129 -17 149 0.0 1.6 0.00 0.00 0.00 1051.4
20260505090626 -17 122 0.0 0.0 0.00 0.00 0.00 1051.3
20260505090124 -17 139 1.6 1.6 0.00 0.00 0.00 1051.1
20260505085621 -17 179 3.2 8.0 0.00 0.00 0.00 1051.1
20260505085120 -17 178 4.8 9.7 0.00 0.00 0.00 1051.1
20260505084617 -17 195 6.4 12.9 0.00 0.00 0.00 1051.3
20260505084116 -17 175 4.8 8.0 0.00 0.00 0.00 1051.4
20260505083613 -17 126 6.4 8.0 0.00 0.00 0.00 1051.8
20260505083109 -17 131 6.4 8.0 0.00 0.00 0.00 1052.0
20260505082605 -17 167 1.6 4.8 0.00 0.00 0.00 1052.1
20260505082102 -17 154 1.6 3.2 0.00 0.00 0.00 1052.2
20260505081558 -17 141 1.6 3.2 0.00 0.00 0.00 1052.0
20260505081055 -17 159 1.6 4.8 0.00 0.00 0.00 1052.1
20260505080551 -17 156 3.2 3.2 0.00 0.00 0.00 1051.9
20260505080049 -17 160 3.2 8.0 0.00 0.00 0.00 1051.8
20260505075544 -17 142 1.6 4.8 0.00 0.00 0.00 1052.2
20260505075041 -17 159 3.2 4.8 0.00 0.00 0.00 1052.1
20260505074538 -17 125 3.2 3.2 0.00 0.00 0.00 1052.3
20260505074035 -17 158 3.2 3.2 0.00 0.00 0.00 1052.3
20260505073533 -17 166 3.2 4.8 0.00 0.00 0.00 1052.5
20260505073032 -17 158 1.6 3.2 0.00 0.00 0.00 1052.5
20260505072526 -17 132 1.6 3.2 0.00 0.00 0.00 1052.8
20260505072023 -17 142 1.6 1.6 0.00 0.00 0.00 1053.0
20260505071518 -17 145 0.0 1.6 0.00 0.00 0.00 1053.1
20260505071017 -17 130 0.0 1.6 0.00 0.00 0.00 1053.1
20260505070514 -17 134 1.6 1.6 0.00 0.00 0.00 1053.1
20260505070010 -17 130 0.0 0.0 0.00 0.00 0.00 1053.3
20260505065506 -17 130 0.0 1.6 0.00 0.00 0.00 1053.3
20260505065002 -17 125 0.0 0.0 0.00 0.00 0.00 1053.4
20260505064459 -17 127 0.0 1.6 0.00 0.00 0.00 1053.0
20260505063958 -17 131 0.0 1.6 0.00 0.00 0.00 1052.9
20260505063454 -17 128 0.0 1.6 0.00 0.00 0.00 1053.0
20260505062950 -17 138 3.2 3.2 0.00 0.00 0.00 1052.9
20260505062448 -17 135 1.6 11.3 0.00 0.00 0.00 1052.6
20260505061944 -17 149 0.0 3.2 0.00 0.00 0.00 1052.5
20260505061443 -17 144 0.0 3.2 0.00 0.00 0.00 1051.9
20260505060940 -17 147 1.6 3.2 0.00 0.00 0.00 1052.0
20260505060437 -17 148 1.6 3.2 0.00 0.00 0.00 1052.0
20260505055933 -17 154 1.6 4.8 0.00 0.00 0.00 1051.8
20260505055429 -17 168 3.2 9.7 0.00 0.00 0.00 1051.9
20260505054926 -17 157 3.2 3.2 0.00 0.00 0.00 1052.2
20260505054423 -17 150 1.6 3.2 0.00 0.00 0.00 1052.8
20260505053921 -17 150 1.6 1.6 0.00 0.00 0.00 1052.5
20260505053418 -17 151 1.6 3.2 0.00 0.00 0.00 1052.5
20260505052915 -17 143 1.6 3.2 0.00 0.00 0.00 1052.2
20260505052412 -17 134 1.6 3.2 0.00 0.00 0.00 1052.5
20260505051909 -17 141 1.6 3.2 0.00 0.00 0.00 1052.3
20260505051406 -17 140 1.6 3.2 0.00 0.00 0.00 1052.7
20260505050904 -17 138 0.0 1.6 0.00 0.00 0.00 1052.8
20260505050402 -17 135 1.6 1.6 0.00 0.00 0.00 1052.7
20260505041330 -17 133 1.6 3.2 0.00 0.00 0.00 1053.1
20260505040827 -17 149 1.6 1.6 0.00 0.00 0.00 1053.2
20260505040325 -17 164 4.8 4.8 0.00 0.00 0.00 1053.1
20260505035821 -17 192 4.8 9.7 0.00 0.00 0.00 1053.1
20260505035317 -17 139 0.0 3.2 0.00 0.00 0.00 1053.1
20260505034814 -17 156 4.8 8.0 0.00 0.00 0.00 1053.3
20260505034311 -17 137 0.0 4.8 0.00 0.00 0.00 1052.8
20260505033808 -17 157 1.6 4.8 0.00 0.00 0.00 1053.0
20260505033305 -17 143 1.6 4.8 0.00 0.00 0.00 1053.2
20260505032803 -17 147 3.2 8.0 0.00 0.00 0.00 1053.2
20260505032259 -17 170 3.2 3.2 0.00 0.00 0.00 1053.2
20260505031757 -17 173 8.0 9.7 0.00 0.00 0.00 1053.3
20260505031253 -17 179 3.2 8.0 0.00 0.00 0.00 1053.4
20260505030750 -17 152 1.6 4.8 0.00 0.00 0.00 1053.5
20260505030246 -17 143 1.6 3.2 0.00 0.00 0.00 1053.5
20260505025741 -17 153 3.2 8.0 0.00 0.00 0.00 1053.2
20260505025240 -17 165 3.2 3.2 0.00 0.00 0.00 1053.4
20260505024738 -17 139 1.6 1.6 0.00 0.00 0.00 1053.1
20260505024235 -17 164 0.0 3.2 0.00 0.00 0.00 1053.0
20260505023732 -17 141 1.6 3.2 0.00 0.00 0.00 1053.0
20260505023229 -17 161 3.2 3.2 0.00 0.00 0.00 1052.6
20260505022726 -17 135 1.6 4.8 0.00 0.00 0.00 1052.7
20260505022223 -17 144 1.6 4.8 0.00 0.00 0.00 1052.8
20260505021720 -17 153 1.6 3.2 0.00 0.00 0.00 1052.6
20260505021217 -17 141 1.6 3.2 0.00 0.00 0.00 1052.7
20260505020712 -17 137 1.6 4.8 0.00 0.00 0.00 1052.6
20260505020208 -17 180 1.6 3.2 0.00 0.00 0.00 1052.5
20260505015706 -17 132 1.6 3.2 0.00 0.00 0.00 1052.3
20260505015202 -17 139 1.6 8.0 0.00 0.00 0.00 1052.2
20260505014659 -17 138 1.6 9.7 0.00 0.00 0.00 1052.0
20260505014156 -17 147 1.6 8.0 0.00 0.00 0.00 1052.1
20260505013654 -17 151 1.6 3.2 0.00 0.00 0.00 1051.8
20260505013151 -17 144 0.0 3.2 0.00 0.00 0.00 1052.0
20260505012649 -17 133 1.6 3.2 0.00 0.00 0.00 1051.7
20260505012146 -17 131 3.2 3.2 0.00 0.00 0.00 1051.8
20260505011641 -17 183 1.6 3.2 0.00 0.00 0.00 1051.7
20260505011139 -17 159 1.6 4.8 0.00 0.00 0.00 1051.7
20260505010633 -17 145 3.2 4.8 0.00 0.00 0.00 1051.3
20260505010131 -17 194 1.6 9.7 0.00 0.00 0.00 1051.6
20260505005627 -17 136 1.6 4.8 0.00 0.00 0.00 1051.3
20260505005124 -17 138 1.6 3.2 0.00 0.00 0.00 1051.5
20260505004621 -17 152 3.2 3.2 0.00 0.00 0.00 1051.4
20260505004117 -17 163 3.2 4.8 0.00 0.00 0.00 1051.3
20260505003615 -17 121 3.2 8.0 0.00 0.00 0.00 1051.3
20260505003113 -17 154 1.6 4.8 0.00 0.00 0.00 1051.2
20260505002608 -17 136 3.2 8.0 0.00 0.00 0.00 1051.2
20260505002106 -17 120 1.6 3.2 0.00 0.00 0.00 1051.2
20260505001603 -17 148 1.6 3.2 0.00 0.00 0.00 1051.2
20260505001101 -17 149 3.2 3.2 0.00 0.00 0.00 1051.4
20260505000557 -17 169 1.6 8.0 0.00 0.00 0.00 1051.5
20260505000055 -17 147 1.6 4.8 0.00 0.00 0.00 1051.5
20260504235552 -17 196 3.2 4.8 0.00 0.00 0.00 1051.6
20260504235048 -17 143 3.2 9.7 0.00 0.00 0.00 1051.6
20260504234545 -17 186 3.2 14.5 0.00 0.00 0.00 1051.3
20260504234042 -17 168 3.2 4.8 0.00 0.00 0.00 1051.4
20260504233537 -17 157 1.6 4.8 0.00 0.00 0.00 1051.4
20260504233035 -17 137 1.6 9.7 0.00 0.00 0.00 1051.1
20260504232532 -17 173 3.2 4.8 0.00 0.00 0.00 1051.4
20260504232030 -17 109 3.2 4.8 0.00 0.00 0.00 1051.5
20260504231526 -17 157 1.6 12.9 0.00 0.00 0.00 1051.5
20260504231022 -17 180 3.2 4.8 0.00 0.00 0.00 1051.4
20260504230518 -17 216 4.8 4.8 0.00 0.00 0.00 1051.7
20260504230018 -17 178 1.6 9.7 0.00 0.00 0.00 1051.8
20260504225514 -17 145 3.2 4.8 0.00 0.00 0.00 1051.7
20260504225011 -17 137 3.2 8.0 0.00 0.00 0.00 1051.6
20260504224508 -17 167 1.6 11.3 0.00 0.00 0.00 1051.7
20260504224005 -17 151 4.8 9.7 0.00 0.00 0.00 1051.7
20260504223501 -17 176 4.8 16.1 0.00 0.00 0.00 1051.6
20260504222956 -17 136 3.2 8.0 0.00 0.00 0.00 1051.7
20260504222454 -17 149 1.6 8.0 0.00 0.00 0.00 1051.7
20260504221952 -17 211 3.2 4.8 0.00 0.00 0.00 1051.7
20260504221449 -17 183 4.8 25.7 0.00 0.00 0.00 1051.9
20260504220941 -17 161 4.8 8.0 0.00 0.00 0.00 1051.4
20260504220437 -17 143 4.8 9.7 0.00 0.00 0.00 1051.6
20260504215934 -17 146 1.6 8.0 0.00 0.00 0.00 1051.6
20260504215431 -17 173 4.8 8.0 0.00 0.00 0.00 1051.6
20260504214928 -17 165 1.6 25.7 0.00 0.00 0.00 1051.7
20260504214424 -17 231 6.4 8.0 0.00 0.00 0.00 1051.9
20260504213921 -17 175 4.8 8.0 0.00 0.00 0.00 1051.8
20260504213416 -17 191 3.2 12.9 0.00 0.00 0.00 1051.8
20260504212914 -17 292 8.0 12.9 0.00 0.00 0.00 1051.6
20260504212409 -17 178 4.8 8.0 0.00 0.00 0.00 1051.8
20260504211908 -17 144 4.8 11.3 0.00 0.00 0.00 1051.8
20260504211404 -17 239 4.8 4.8 0.00 0.00 0.00 1051.7
20260504210901 -17 165 4.8 9.7 0.00 0.00 0.00 1052.0
20260504210358 -17 212 4.8 14.5 0.00 0.00 0.00 1051.9
20260504205855 -17 117 8.0 11.3 0.00 0.00 0.00 1051.9
20260504205353 -17 205 6.4 9.7 0.00 0.00 0.00 1051.9
20260504204850 -17 129 6.4 9.7 0.00 0.00 0.00 1052.1
20260504204349 -17 167 4.8 9.7 0.00 0.00 0.00 1052.0
20260504203848 -17 255 8.0 16.1 0.00 0.00 0.00 1052.1
20260504203344 -17 143 4.8 11.3 0.00 0.00 0.00 1052.2
20260504202840 -17 156 3.2 11.3 0.00 0.00 0.00 1052.5
20260504202337 -17 176 4.8 12.9 0.00 0.00 0.00 1052.2
20260504201834 -17 173 11.3 17.7 0.00 0.00 0.00 1052.0
20260504201331 -17 118 3.2 8.0 0.00 0.00 0.00 1052.2
20260504200829 -17 224 8.0 16.1 0.00 0.00 0.00 1052.5
20260504200325 -17 181 3.2 11.3 0.00 0.00 0.00 1052.6
20260504195822 -17 231 3.2 4.8 0.00 0.00 0.00 1052.5
20260504195317 -17 200 4.8 12.9 0.00 0.00 0.00 1052.7
20260504194815 -17 296 6.4 8.0 0.00 0.00 0.00 1052.7
20260504194311 -17 190 3.2 16.1 0.00 0.00 0.00 1052.6
20260504193807 -17 165 3.2 8.0 0.00 0.00 0.00 1052.7
20260504193304 -17 178 4.8 22.5 0.00 0.00 0.00 1052.9
20260504192803 -17 188 3.2 9.7 0.00 0.00 0.00 1052.9
20260504192300 -17 121 4.8 9.7 0.00 0.00 0.00 1053.0
20260504191759 -17 159 3.2 4.8 0.00 0.00 0.00 1053.0
20260504191255 -17 178 4.8 9.7 0.00 0.00 0.00 1053.2
20260504190751 -17 123 3.2 8.0 0.00 0.00 0.00 1053.4
20260504190248 -17 137 3.2 9.7 0.00 0.00 0.00 1053.3
20260504185744 -17 158 3.2 4.8 0.00 0.00 0.00 1053.1
20260504185241 -17 200 3.2 4.8 0.00 0.00 0.00 1053.4
20260504184737 -17 203 8.0 14.5 0.00 0.00 0.00 1053.5
20260504184233 -17 114 3.2 8.0 0.00 0.00 0.00 1053.5
20260504183729 -17 177 3.2 8.0 0.00 0.00 0.00 1053.4
20260504183226 -17 182 3.2 8.0 0.00 0.00 0.00 1053.3
20260504182724 -17 219 4.8 8.0 0.00 0.00 0.00 1053.6
20260504182221 -17 207 8.0 12.9 0.00 0.00 0.00 1053.6
20260504181718 -17 238 8.0 12.9 0.00 0.00 0.00 1053.6
20260504181215 -17 257 4.8 9.7 0.00 0.00 0.00 1053.8
20260504180714 -17 245 6.4 12.9 0.00 0.00 0.00 1053.7
20260504180213 -17 198 6.4 17.7 0.00 0.00 0.00 1053.5
20260504175710 -17 201 11.3 14.5 0.00 0.00 0.00 1053.4
20260504175207 -17 262 8.0 11.3 0.00 0.00 0.00 1053.6
20260504174705 -17 271 9.7 16.1 0.00 0.00 0.00 1053.7
20260504174203 -17 207 4.8 14.5 0.00 0.00 0.00 1053.4
20260504173658 -17 199 4.8 11.3 0.00 0.00 0.00 1053.3
20260504173156 -17 170 4.8 9.7 0.00 0.00 0.00 1053.6
20260504172652 -17 38 8.0 11.3 0.00 0.00 0.00 1053.5
20260504172149 -17 115 4.8 14.5 0.00 0.00 0.00 1053.5
20260504171645 -17 178 9.7 24.1 0.00 0.00 0.00 1053.4
20260504171143 -17 214 8.0 16.1 0.00 0.00 0.00 1053.5
20260504170639 -17 205 4.8 9.7 0.00 0.00 0.00 1053.2
20260504170137 -17 215 4.8 14.5 0.00 0.00 0.00 1053.3
20260504151022 -17 134 3.2 9.7 0.00 0.00 0.00 1054.3
20260504150519 -17 250 4.8 8.0 0.00 0.00 0.00 1054.2
20260504140945 -17 209 4.8 8.0 0.00 0.00 0.00 1054.9
20260504140441 -17 218 3.2 9.7 0.00 0.00 0.00 1055.0
20260504130406 -17 155 0.0 4.8 0.00 0.00 0.00 1055.3
20260504110254 -17 196 4.8 4.8 0.00 0.00 0.00 1055.5